GFSCGP_500_temp_057.txt.gz
Temp
-15 -15 -15 -15 -15 -14 -14 -14 -14 -14 -14 -14 -13 -13 -13 -13 -13 -13 -12 -12 -13 -12 -12 -12 -12 -12 -11 -12 -11 -11 -11 -10 -10 -10 -11 -11 -10 -10 -10 -10 -10 -10 -10 -11
-15 -16 -15 -15 -15 -15 -14 -14 -14 -14 -14 -14 -14 -13 -13 -13 -13 -13 -13 -12 -12 -13 -13 -12 -12 -12 -12 -12 -12 -11 -11 -11 -11 -10 -11 -10 -10 -10 -10 -10 -11 -11 -11 -11
-16 -16 -16 -16 -15 -15 -15 -15 -14 -14 -14 -13 -13 -13 -13 -13 -13 -13 -13 -12 -12 -12 -12 -12 -12 -12 -12 -12 -12 -12 -12 -12 -12 -11 -11 -11 -11 -11 -11 -11 -11 -11 -12 -11
-17 -16 -16 -16 -16 -16 -15 -15 -15 -14 -14 -14 -14 -12 -13 -13 -14 -14 -13 -12 -12 -12 -12 -12 -12 -12 -12 -12 -12 -13 -12 -13 -12 -12 -12 -12 -11 -11 -11 -11 -11 -11 -12 -12
-17 -17 -17 -17 -16 -16 -16 -15 -15 -15 -14 -14 -14 -13 -12 -13 -14 -14 -13 -13 -13 -12 -12 -12 -12 -12 -12 -12 -12 -12 -12 -12 -12 -12 -12 -12 -12 -12 -12 -12 -12 -12 -11 -11
-19 -18 -18 -18 -17 -17 -16 -16 -15 -15 -15 -14 -14 -14 -13 -14 -14 -14 -14 -13 -14 -13 -13 -12 -12 -12 -12 -12 -11 -11 -11 -12 -12 -12 -12 -12 -12 -12 -12 -12 -12 -12 -12 -12
-19 -19 -20 -19 -19 -18 -17 -17 -16 -16 -16 -15 -15 -14 -13 -14 -14 -14 -14 -14 -14 -13 -13 -13 -12 -12 -12 -12 -12 -12 -11 -11 -11 -11 -12 -12 -12 -11 -11 -11 -12 -12 -12 -12
-19 -19 -20 -20 -19 -18 -18 -18 -17 -16 -16 -16 -15 -14 -15 -15 -16 -17 -15 -14 -14 -13 -13 -13 -13 -12 -12 -12 -12 -12 -12 -11 -12 -11 -11 -11 -12 -11 -12 -12 -12 -11 -12 -12
-20 -20 -20 -20 -20 -20 -19 -19 -18 -18 -18 -17 -16 -16 -16 -17 -18 -17 -16 -16 -14 -13 -13 -13 -13 -13 -12 -12 -12 -12 -12 -12 -12 -11 -11 -11 -11 -10 -11 -12 -12 -11 -11 -11
-20 -20 -20 -20 -21 -20 -20 -19 -19 -19 -18 -18 -17 -17 -17 -17 -18 -18 -17 -17 -16 -16 -15 -14 -13 -12 -12 -12 -12 -12 -12 -12 -12 -11 -11 -11 -11 -11 -11 -11 -11 -11 -11 -11
-21 -21 -20 -21 -21 -20 -20 -20 -19 -19 -19 -18 -18 -17 -17 -18 -19 -18 -18 -18 -19 -19 -19 -18 -18 -16 -13 -13 -12 -12 -12 -11 -11 -11 -11 -11 -11 -11 -11 -11 -11 -10 -11 -11
-21 -21 -21 -21 -21 -20 -20 -20 -20 -19 -19 -18 -19 -17 -18 -19 -19 -18 -18 -19 -20 -21 -21 -21 -21 -20 -19 -18 -15 -12 -12 -11 -11 -11 -11 -11 -11 -11 -11 -11 -11 -11 -11 -11
-21 -21 -21 -21 -21 -20 -20 -20 -20 -19 -19 -19 -19 -18 -19 -19 -19 -18 -19 -20 -20 -21 -20 -20 -20 -20 -20 -19 -19 -16 -14 -11 -11 -11 -11 -11 -11 -11 -11 -11 -12 -12 -11 -11
-21 -21 -21 -21 -21 -21 -20 -20 -20 -20 -19 -19 -19 -18 -20 -19 -20 -20 -21 -20 -20 -20 -20 -20 -20 -20 -20 -20 -19 -19 -16 -12 -11 -11 -11 -11 -11 -11 -11 -12 -12 -12 -11 -11
-21 -21 -22 -21 -21 -21 -20 -21 -21 -20 -20 -19 -19 -19 -20 -20 -20 -20 -20 -20 -21 -20 -20 -20 -20 -20 -19 -19 -19 -19 -18 -15 -12 -11 -11 -11 -11 -11 -11 -12 -12 -11 -11 -11
-22 -21 -22 -21 -21 -21 -20 -21 -21 -21 -21 -20 -20 -19 -20 -20 -20 -21 -21 -20 -20 -20 -20 -20 -20 -19 -19 -20 -19 -19 -18 -16 -13 -12 -11 -11 -11 -11 -11 -12 -12 -11 -11 -11
-22 -22 -22 -21 -22 -21 -21 -21 -21 -21 -21 -21 -20 -20 -20 -20 -21 -21 -21 -20 -20 -19 -20 -20 -20 -20 -20 -19 -19 -19 -19 -18 -15 -12 -11 -11 -11 -11 -11 -12 -11 -11 -11 -11
-22 -22 -22 -21 -21 -21 -21 -21 -21 -21 -21 -21 -20 -20 -20 -20 -21 -21 -21 -20 -20 -20 -20 -20 -20 -20 -19 -19 -19 -19 -19 -18 -16 -13 -12 -11 -12 -11 -11 -11 -11 -11 -11 -11
-22 -22 -22 -22 -21 -21 -21 -21 -21 -20 -20 -21 -20 -20 -20 -21 -21 -21 -21 -21 -19 -19 -19 -19 -19 -19 -19 -18 -18 -18 -18 -18 -17 -13 -12 -12 -12 -11 -11 -11 -11 -11 -11 -11
-22 -22 -22 -22 -22 -21 -21 -21 -21 -20 -20 -20 -20 -20 -21 -20 -19 -20 -20 -19 -18 -17 -18 -18 -17 -18 -18 -18 -17 -17 -16 -16 -16 -13 -12 -12 -12 -11 -11 -11 -12 -11 -11 -11
-22 -22 -22 -22 -22 -22 -22 -21 -21 -20 -20 -20 -20 -20 -20 -19 -19 -18 -18 -18 -18 -18 -18 -17 -17 -17 -17 -17 -16 -16 -16 -16 -15 -13 -13 -13 -12 -11 -11 -12 -12 -12 -12 -12
-22 -22 -22 -22 -22 -22 -22 -21 -21 -21 -20 -20 -21 -20 -19 -18 -19 -18 -18 -18 -17 -17 -17 -17 -17 -16 -17 -16 -16 -16 -16 -15 -14 -13 -13 -13 -13 -12 -12 -12 -12 -12 -12 -12
-22 -22 -22 -22 -22 -22 -22 -21 -21 -21 -21 -20 -20 -20 -19 -18 -18 -17 -17 -18 -18 -17 -16 -16 -16 -16 -16 -15 -16 -16 -16 -15 -14 -13 -13 -13 -13 -12 -13 -13 -13 -12 -13 -13
-22 -22 -22 -22 -22 -21 -22 -21 -21 -21 -21 -20 -19 -19 -19 -18 -17 -17 -18 -18 -17 -17 -16 -16 -16 -16 -15 -15 -15 -15 -14 -13 -14 -13 -13 -13 -13 -13 -13 -13 -13 -13 -12 -13
-22 -22 -22 -22 -22 -22 -22 -22 -21 -21 -20 -20 -20 -19 -18 -17 -16 -18 -18 -17 -17 -16 -15 -14 -14 -14 -13 -13 -13 -14 -13 -13 -13 -13 -13 -13 -13 -13 -13 -13 -12 -12 -12 -12
-22 -22 -22 -22 -22 -22 -22 -21 -20 -20 -20 -20 -19 -19 -17 -16 -16 -17 -17 -17 -15 -15 -14 -13 -12 -12 -11 -12 -12 -13 -12 -12 -12 -12 -13 -13 -13 -13 -12 -13 -12 -12 -12 -11

GFSCGP_500_temp_060.txt.gz
Temp
-15 -15 -15 -15 -15 -15 -15 -15 -15 -15 -14 -14 -14 -14 -13 -13 -13 -13 -13 -13 -12 -13 -13 -13 -12 -11 -10 -10 -10 -9 -10 -10 -9 -9 -10 -9 -10 -10 -10 -9 -9 -10 -10 -10
-15 -15 -15 -15 -15 -15 -15 -15 -15 -15 -15 -14 -14 -14 -13 -13 -13 -13 -13 -13 -13 -14 -13 -13 -13 -12 -12 -11 -10 -10 -10 -10 -10 -10 -10 -9 -9 -10 -11 -9 -11 -10 -10 -10
-16 -15 -16 -16 -16 -16 -16 -16 -15 -15 -14 -15 -14 -14 -14 -14 -13 -13 -13 -13 -13 -13 -13 -14 -12 -13 -13 -12 -12 -11 -11 -11 -10 -10 -10 -9 -9 -11 -11 -10 -10 -11 -10 -10
-17 -16 -16 -16 -16 -16 -16 -15 -15 -15 -15 -15 -14 -14 -13 -14 -14 -13 -13 -13 -13 -13 -13 -13 -13 -13 -12 -13 -13 -12 -11 -12 -12 -11 -10 -10 -11 -11 -10 -10 -11 -9 -10 -11
-19 -17 -17 -17 -17 -16 -17 -16 -15 -15 -15 -15 -15 -14 -15 -14 -14 -14 -14 -13 -13 -12 -12 -12 -13 -12 -13 -12 -12 -12 -13 -12 -12 -12 -11 -11 -11 -11 -11 -10 -10 -10 -11 -12
-19 -18 -18 -19 -18 -18 -17 -16 -16 -15 -15 -15 -15 -15 -17 -15 -15 -15 -14 -14 -13 -13 -12 -12 -12 -12 -12 -12 -12 -13 -12 -13 -13 -13 -13 -13 -12 -12 -12 -12 -11 -11 -12 -12
-20 -19 -19 -19 -19 -19 -18 -17 -18 -18 -17 -18 -15 -15 -16 -16 -15 -15 -14 -14 -14 -14 -13 -12 -12 -12 -12 -12 -12 -12 -12 -13 -12 -12 -12 -13 -13 -12 -12 -12 -12 -12 -12 -12
-20 -20 -19 -19 -19 -20 -21 -19 -20 -19 -19 -19 -15 -15 -16 -17 -16 -15 -15 -14 -14 -13 -13 -13 -14 -13 -12 -12 -12 -12 -12 -12 -12 -12 -12 -12 -12 -12 -12 -12 -12 -12 -12 -12
-21 -20 -20 -20 -20 -20 -20 -20 -19 -18 -18 -17 -16 -17 -17 -16 -17 -17 -16 -15 -14 -14 -13 -13 -13 -13 -13 -13 -12 -12 -12 -12 -12 -12 -12 -12 -11 -11 -11 -12 -12 -12 -12 -12
-21 -20 -21 -20 -20 -20 -21 -21 -20 -20 -19 -18 -18 -18 -19 -17 -17 -18 -17 -16 -16 -15 -15 -14 -13 -13 -12 -12 -13 -12 -12 -12 -12 -11 -11 -11 -11 -11 -11 -11 -11 -11 -12 -13
-20 -20 -21 -21 -21 -21 -21 -21 -20 -20 -20 -19 -18 -19 -18 -18 -18 -18 -18 -17 -17 -17 -17 -17 -16 -14 -13 -12 -12 -12 -12 -12 -12 -12 -11 -11 -11 -11 -11 -11 -11 -11 -11 -12
-21 -21 -21 -21 -21 -21 -21 -21 -22 -20 -20 -19 -18 -17 -19 -19 -18 -18 -18 -17 -18 -17 -17 -17 -17 -17 -16 -14 -13 -12 -12 -12 -12 -12 -12 -12 -11 -11 -10 -11 -11 -11 -11 -11
-21 -21 -21 -21 -21 -21 -21 -21 -21 -20 -20 -19 -19 -18 -19 -18 -18 -18 -18 -18 -18 -18 -19 -19 -18 -18 -18 -19 -19 -17 -14 -12 -12 -12 -12 -12 -12 -11 -11 -11 -11 -11 -12 -12
-22 -22 -21 -21 -21 -21 -21 -21 -21 -20 -20 -20 -19 -18 -19 -19 -19 -18 -19 -19 -19 -19 -20 -19 -19 -19 -19 -20 -20 -20 -20 -18 -16 -13 -12 -11 -11 -11 -11 -11 -11 -12 -12 -12
-22 -22 -22 -22 -22 -22 -21 -21 -21 -21 -20 -20 -19 -19 -19 -19 -19 -18 -19 -19 -19 -20 -20 -20 -19 -19 -19 -20 -20 -19 -19 -20 -19 -18 -14 -11 -11 -11 -11 -11 -11 -11 -12 -12
-22 -22 -22 -22 -22 -22 -21 -21 -21 -20 -20 -20 -20 -19 -20 -19 -19 -19 -19 -19 -20 -20 -20 -19 -19 -19 -19 -20 -20 -19 -19 -19 -19 -19 -18 -14 -12 -11 -11 -11 -11 -12 -12 -11
-22 -22 -22 -22 -22 -22 -21 -21 -21 -21 -21 -20 -20 -20 -19 -19 -19 -19 -20 -20 -20 -20 -20 -19 -20 -19 -19 -19 -20 -20 -19 -19 -19 -19 -19 -17 -13 -12 -11 -11 -11 -11 -12 -12
-22 -22 -22 -22 -22 -22 -22 -21 -21 -21 -21 -21 -21 -20 -20 -19 -19 -19 -20 -21 -19 -20 -20 -20 -20 -19 -20 -19 -20 -20 -20 -20 -19 -19 -19 -19 -15 -12 -11 -11 -11 -11 -12 -12
-22 -22 -22 -22 -22 -21 -21 -21 -21 -21 -21 -21 -20 -20 -20 -20 -19 -19 -21 -20 -19 -19 -19 -20 -20 -19 -19 -19 -19 -19 -19 -19 -19 -19 -19 -19 -15 -12 -11 -11 -11 -12 -12 -12
-22 -22 -22 -22 -22 -21 -22 -21 -21 -21 -21 -20 -20 -20 -19 -19 -19 -19 -20 -19 -18 -18 -18 -19 -18 -18 -19 -19 -19 -19 -18 -18 -19 -18 -19 -19 -15 -13 -12 -12 -12 -12 -12 -12
-21 -22 -22 -22 -22 -22 -22 -22 -22 -21 -21 -21 -20 -19 -19 -20 -20 -18 -18 -18 -18 -17 -18 -18 -18 -18 -18 -18 -17 -18 -17 -18 -19 -19 -18 -17 -14 -13 -12 -12 -12 -12 -12 -11
-22 -22 -22 -22 -22 -22 -22 -22 -21 -21 -20 -20 -20 -20 -20 -19 -19 -18 -18 -17 -17 -18 -18 -18 -17 -17 -17 -17 -18 -17 -17 -17 -18 -18 -17 -15 -13 -13 -13 -12 -12 -12 -12 -11
-22 -22 -22 -22 -22 -22 -22 -22 -21 -21 -20 -20 -20 -19 -19 -18 -18 -18 -17 -17 -18 -17 -17 -17 -17 -17 -17 -17 -16 -16 -16 -16 -16 -16 -15 -14 -14 -13 -12 -12 -12 -11 -11 -12
-21 -21 -22 -22 -22 -22 -22 -22 -22 -21 -20 -20 -19 -19 -18 -18 -17 -17 -18 -17 -17 -16 -16 -16 -15 -15 -16 -16 -16 -16 -15 -15 -14 -14 -14 -14 -13 -13 -13 -13 -12 -12 -12 -13
-21 -21 -21 -22 -21 -21 -22 -22 -21 -20 -20 -20 -19 -19 -18 -16 -17 -18 -17 -17 -16 -16 -15 -15 -15 -15 -15 -16 -15 -15 -15 -14 -14 -13 -13 -13 -13 -13 -13 -13 -12 -13 -13 -13
-21 -21 -22 -22 -22 -22 -21 -20 -20 -19 -19 -19 -19 -18 -17 -16 -17 -18 -17 -16 -15 -15 -14 -14 -13 -13 -14 -15 -15 -15 -14 -13 -13 -12 -12 -13 -13 -13 -13 -13 -13 -13 -13 -13

GFSCGP_500_temp_063.txt.gz
Temp
-14 -14 -15 -15 -16 -15 -16 -15 -16 -17 -17 -14 -14 -14 -14 -14 -13 -13 -13 -13 -13 -13 -12 -13 -13 -11 -10 -9 -10 -10 -9 -8 -9 -10 -9 -10 -10 -10 -10 -10 -10 -10 -10 -10
-15 -15 -15 -16 -15 -15 -15 -15 -16 -16 -16 -14 -14 -14 -14 -14 -13 -13 -14 -14 -13 -14 -13 -13 -13 -12 -11 -10 -9 -10 -10 -9 -8 -9 -11 -10 -10 -10 -10 -9 -10 -9 -10 -10
-16 -17 -16 -15 -15 -16 -16 -16 -16 -17 -17 -14 -14 -14 -14 -14 -14 -13 -14 -14 -14 -13 -13 -13 -12 -12 -12 -11 -10 -10 -10 -10 -10 -10 -10 -10 -8 -9 -9 -10 -10 -10 -10 -10
-17 -18 -16 -17 -17 -17 -17 -18 -17 -16 -15 -16 -16 -15 -16 -15 -14 -14 -13 -13 -13 -13 -14 -13 -13 -12 -13 -11 -11 -11 -12 -11 -11 -11 -9 -10 -10 -10 -10 -11 -10 -10 -11 -10
-18 -20 -17 -18 -19 -19 -18 -18 -16 -16 -16 -16 -16 -16 -15 -17 -16 -14 -14 -13 -13 -13 -13 -13 -13 -13 -13 -13 -12 -12 -12 -11 -12 -11 -11 -10 -10 -10 -11 -10 -11 -11 -10 -10
-20 -20 -19 -19 -18 -19 -20 -17 -17 -17 -17 -16 -16 -16 -17 -17 -16 -15 -14 -14 -13 -13 -13 -13 -13 -13 -13 -13 -13 -12 -12 -11 -12 -12 -12 -11 -10 -11 -11 -11 -11 -10 -12 -11
-20 -20 -20 -19 -18 -19 -19 -19 -19 -19 -18 -17 -17 -17 -17 -17 -17 -17 -14 -14 -14 -14 -13 -13 -13 -13 -13 -13 -13 -12 -12 -12 -12 -12 -12 -11 -11 -11 -11 -12 -12 -12 -11 -11
-20 -20 -18 -19 -18 -20 -19 -20 -19 -18 -17 -17 -18 -18 -18 -18 -17 -16 -15 -15 -15 -15 -14 -14 -14 -13 -13 -13 -13 -13 -12 -13 -13 -13 -12 -12 -12 -11 -12 -12 -12 -11 -11 -11
-20 -20 -19 -19 -19 -20 -20 -19 -20 -19 -18 -18 -18 -18 -18 -18 -17 -17 -16 -16 -15 -15 -15 -14 -14 -14 -14 -13 -13 -13 -13 -13 -13 -12 -12 -12 -12 -12 -11 -12 -12 -11 -12 -12
-20 -20 -20 -20 -20 -20 -20 -20 -20 -20 -20 -20 -18 -18 -18 -18 -17 -17 -17 -17 -16 -16 -15 -15 -15 -15 -14 -13 -13 -13 -13 -13 -13 -13 -13 -12 -12 -12 -12 -12 -12 -12 -12 -12
-21 -21 -20 -20 -20 -21 -20 -20 -20 -20 -20 -19 -18 -18 -18 -18 -18 -18 -17 -17 -17 -16 -16 -16 -16 -15 -15 -14 -14 -13 -13 -13 -13 -13 -13 -12 -12 -12 -11 -11 -11 -11 -11 -12
-22 -21 -21 -21 -21 -21 -21 -21 -20 -20 -20 -20 -20 -18 -18 -18 -19 -18 -19 -18 -17 -17 -17 -17 -16 -16 -16 -16 -14 -13 -13 -13 -13 -12 -12 -12 -12 -12 -11 -11 -11 -12 -12 -12
-21 -21 -21 -20 -21 -21 -21 -21 -21 -21 -19 -20 -20 -17 -18 -19 -19 -19 -20 -20 -17 -17 -17 -17 -17 -17 -17 -16 -16 -16 -15 -14 -13 -13 -12 -12 -12 -12 -12 -12 -11 -11 -11 -11
-22 -21 -21 -20 -21 -20 -20 -21 -22 -22 -20 -20 -19 -20 -20 -19 -20 -20 -20 -20 -20 -18 -17 -17 -17 -17 -17 -17 -17 -17 -17 -16 -16 -14 -13 -12 -12 -12 -12 -12 -12 -11 -11 -11
-22 -22 -21 -21 -21 -21 -21 -21 -22 -22 -22 -21 -20 -21 -20 -20 -20 -20 -20 -19 -18 -18 -18 -18 -17 -18 -17 -17 -17 -17 -17 -17 -17 -17 -16 -14 -12 -12 -12 -12 -12 -11 -11 -11
-21 -21 -21 -21 -21 -21 -21 -21 -21 -21 -21 -21 -21 -19 -20 -21 -20 -20 -20 -19 -18 -19 -19 -18 -18 -18 -18 -17 -18 -17 -17 -17 -18 -17 -18 -18 -16 -13 -12 -11 -12 -12 -11 -11
-21 -21 -21 -21 -23 -22 -22 -21 -22 -20 -21 -20 -20 -21 -21 -20 -20 -20 -18 -19 -18 -19 -19 -19 -18 -19 -18 -18 -18 -18 -17 -17 -17 -18 -19 -19 -19 -18 -15 -12 -11 -11 -11 -11
-21 -21 -21 -22 -22 -21 -21 -21 -20 -20 -20 -20 -20 -20 -21 -20 -20 -20 -19 -19 -19 -19 -19 -19 -18 -18 -18 -19 -19 -19 -19 -18 -18 -19 -19 -19 -19 -19 -19 -15 -11 -11 -11 -11
-21 -21 -21 -21 -21 -21 -21 -21 -21 -21 -20 -21 -20 -20 -20 -20 -20 -19 -19 -19 -19 -19 -19 -18 -18 -18 -18 -19 -19 -19 -19 -18 -19 -19 -19 -19 -19 -19 -19 -17 -12 -11 -11 -11
-22 -22 -21 -21 -21 -21 -22 -21 -21 -21 -21 -20 -21 -21 -21 -20 -19 -19 -19 -19 -19 -19 -18 -18 -18 -18 -18 -18 -19 -19 -19 -19 -19 -19 -19 -19 -19 -19 -19 -18 -13 -11 -11 -11
-22 -22 -21 -21 -21 -21 -21 -21 -21 -21 -21 -21 -21 -20 -20 -20 -20 -19 -19 -19 -19 -18 -18 -18 -17 -17 -18 -18 -18 -18 -18 -19 -19 -20 -19 -19 -19 -19 -18 -18 -13 -12 -12 -12
-21 -21 -21 -21 -21 -21 -21 -21 -21 -21 -21 -21 -21 -20 -19 -19 -19 -19 -19 -18 -18 -18 -18 -17 -16 -17 -18 -18 -17 -18 -18 -19 -19 -18 -19 -19 -19 -19 -18 -16 -14 -12 -12 -12
-21 -21 -21 -21 -21 -21 -21 -21 -21 -22 -21 -21 -20 -19 -20 -19 -19 -19 -18 -18 -17 -17 -17 -17 -16 -17 -17 -17 -17 -18 -19 -18 -18 -18 -18 -19 -19 -18 -17 -15 -13 -13 -12 -12
-21 -21 -21 -21 -21 -21 -21 -21 -22 -20 -20 -20 -20 -19 -19 -19 -19 -18 -18 -17 -16 -16 -16 -16 -16 -16 -17 -17 -17 -17 -16 -17 -18 -18 -18 -19 -18 -17 -15 -14 -13 -12 -12 -12
-20 -21 -21 -21 -21 -21 -21 -22 -20 -20 -20 -20 -20 -19 -19 -18 -17 -17 -17 -17 -16 -15 -15 -15 -15 -15 -16 -16 -16 -16 -16 -16 -17 -17 -17 -16 -16 -15 -14 -13 -13 -13 -13 -13
-20 -20 -21 -21 -21 -21 -21 -20 -19 -19 -20 -20 -19 -18 -18 -17 -18 -17 -16 -16 -15 -15 -15 -15 -15 -14 -15 -15 -15 -15 -15 -16 -16 -15 -15 -14 -13 -13 -13 -13 -13 -13 -13 -13

GFSCGP_500_temp_069.txt.gz
Temp
-14 -14 -14 -15 -15 -15 -15 -15 -16 -15 -15 -16 -16 -16 -16 -15 -14 -13 -13 -13 -13 -12 -12 -13 -12 -11 -11 -11 -12 -13 -12 -12 -12 -12 -10 -9 -10 -10 -9 -9 -10 -10 -10 -10
-14 -14 -15 -15 -16 -16 -16 -16 -16 -15 -16 -16 -16 -16 -16 -16 -15 -14 -13 -13 -13 -13 -13 -14 -13 -11 -11 -11 -12 -12 -13 -13 -13 -12 -12 -10 -10 -9 -9 -8 -10 -9 -10 -10
-14 -15 -15 -16 -18 -18 -17 -18 -17 -16 -16 -16 -16 -16 -17 -15 -13 -14 -15 -14 -14 -13 -13 -14 -14 -12 -11 -11 -12 -13 -13 -13 -13 -13 -12 -11 -10 -10 -10 -10 -9 -10 -10 -10
-15 -16 -16 -17 -18 -18 -18 -18 -18 -17 -18 -17 -17 -17 -16 -16 -14 -16 -15 -15 -15 -14 -14 -13 -14 -12 -11 -11 -12 -13 -13 -13 -13 -13 -12 -12 -11 -10 -10 -9 -9 -9 -10 -9
-16 -17 -17 -18 -18 -18 -18 -19 -18 -18 -17 -17 -15 -17 -15 -15 -15 -15 -15 -15 -15 -14 -14 -14 -14 -13 -12 -13 -12 -13 -13 -13 -12 -12 -12 -11 -12 -11 -11 -10 -10 -10 -10 -10
-17 -17 -18 -19 -19 -18 -18 -19 -18 -19 -18 -17 -16 -18 -15 -15 -16 -16 -16 -16 -15 -15 -15 -14 -14 -13 -12 -13 -14 -13 -13 -13 -13 -13 -13 -12 -12 -12 -11 -11 -11 -10 -10 -10
-18 -17 -19 -19 -18 -18 -19 -19 -19 -18 -19 -17 -18 -19 -15 -16 -17 -16 -17 -17 -16 -15 -15 -15 -14 -14 -14 -13 -13 -13 -13 -13 -13 -13 -13 -13 -13 -13 -12 -11 -11 -11 -11 -10
-18 -18 -18 -19 -19 -18 -18 -18 -18 -18 -18 -18 -18 -17 -16 -17 -17 -16 -17 -17 -17 -16 -14 -15 -15 -15 -14 -14 -14 -14 -13 -14 -13 -13 -13 -13 -13 -13 -13 -12 -12 -11 -11 -11
-18 -18 -18 -18 -19 -19 -19 -18 -19 -18 -19 -18 -17 -17 -18 -17 -17 -17 -17 -17 -16 -15 -16 -16 -15 -15 -15 -15 -14 -14 -14 -13 -13 -13 -13 -13 -13 -13 -13 -13 -13 -11 -12 -12
-19 -19 -19 -19 -19 -20 -19 -19 -19 -18 -18 -18 -18 -18 -17 -17 -17 -17 -18 -17 -18 -17 -17 -17 -16 -15 -15 -15 -15 -14 -14 -14 -14 -14 -13 -13 -13 -13 -13 -13 -12 -13 -13 -13
-20 -20 -19 -20 -20 -20 -20 -19 -19 -19 -19 -18 -18 -18 -18 -18 -18 -18 -18 -18 -18 -18 -18 -19 -18 -16 -16 -16 -15 -15 -15 -15 -14 -14 -14 -14 -14 -13 -13 -13 -13 -13 -13 -13
-20 -20 -21 -20 -21 -21 -20 -20 -19 -19 -19 -18 -18 -17 -18 -18 -18 -18 -18 -18 -17 -16 -18 -18 -18 -18 -17 -17 -16 -15 -15 -15 -15 -15 -14 -14 -14 -14 -14 -13 -13 -13 -13 -13
-21 -20 -20 -20 -21 -21 -20 -20 -19 -19 -20 -19 -19 -17 -19 -18 -18 -18 -18 -18 -18 -18 -18 -18 -17 -18 -17 -17 -17 -16 -16 -15 -15 -15 -15 -15 -14 -14 -14 -13 -13 -13 -13 -13
-20 -21 -21 -21 -21 -21 -20 -20 -20 -20 -20 -19 -19 -19 -20 -20 -19 -19 -19 -19 -18 -18 -18 -18 -18 -18 -18 -17 -16 -17 -16 -16 -16 -16 -16 -16 -15 -15 -14 -14 -14 -13 -13 -13
-20 -21 -21 -21 -20 -20 -20 -20 -20 -20 -20 -20 -20 -20 -21 -20 -20 -19 -18 -19 -19 -18 -18 -18 -18 -18 -18 -18 -17 -17 -17 -17 -17 -16 -16 -16 -16 -16 -15 -14 -13 -14 -13 -13
-20 -20 -20 -20 -20 -20 -20 -20 -19 -20 -19 -19 -19 -18 -19 -20 -20 -19 -19 -19 -19 -19 -18 -19 -18 -18 -18 -18 -18 -18 -17 -17 -17 -17 -16 -16 -16 -16 -16 -16 -14 -13 -14 -13
-20 -20 -20 -21 -20 -20 -21 -20 -20 -20 -20 -19 -20 -20 -19 -20 -21 -20 -19 -19 -18 -19 -19 -18 -18 -18 -19 -19 -19 -19 -18 -17 -17 -17 -17 -17 -17 -17 -16 -16 -16 -15 -15 -14
-20 -20 -20 -20 -20 -21 -20 -20 -20 -20 -20 -20 -20 -20 -20 -20 -20 -20 -20 -20 -20 -19 -19 -19 -19 -20 -19 -19 -19 -19 -18 -18 -17 -18 -17 -17 -17 -16 -16 -16 -16 -16 -16 -15
-20 -21 -21 -20 -20 -20 -20 -20 -20 -20 -21 -20 -20 -20 -20 -20 -19 -20 -20 -19 -19 -19 -19 -19 -18 -18 -19 -18 -18 -18 -17 -17 -18 -17 -17 -17 -17 -17 -17 -17 -17 -17 -16 -16
-20 -20 -21 -21 -20 -20 -20 -21 -21 -21 -20 -20 -20 -20 -20 -19 -19 -19 -19 -19 -19 -19 -19 -19 -18 -18 -18 -18 -18 -18 -17 -18 -17 -18 -18 -17 -17 -17 -17 -17 -18 -18 -17 -17
-20 -20 -20 -21 -20 -20 -20 -21 -20 -20 -20 -21 -20 -20 -19 -19 -19 -19 -19 -18 -19 -19 -19 -19 -19 -19 -19 -18 -18 -18 -18 -17 -17 -17 -17 -17 -17 -17 -17 -18 -18 -19 -18 -17
-20 -20 -21 -21 -21 -20 -21 -20 -21 -21 -21 -20 -19 -19 -18 -19 -19 -19 -19 -18 -18 -18 -18 -19 -19 -19 -19 -18 -18 -18 -17 -18 -18 -17 -17 -17 -18 -17 -18 -18 -19 -19 -19 -18
-20 -20 -20 -21 -21 -21 -21 -21 -21 -21 -21 -20 -19 -19 -19 -19 -19 -19 -19 -19 -19 -19 -18 -18 -18 -18 -18 -18 -17 -17 -17 -17 -17 -17 -17 -18 -18 -18 -19 -18 -19 -19 -19 -18
-20 -20 -20 -20 -20 -21 -21 -21 -21 -21 -20 -19 -19 -19 -18 -18 -18 -18 -18 -17 -17 -17 -17 -17 -17 -17 -17 -17 -17 -17 -18 -18 -17 -18 -18 -18 -19 -19 -19 -19 -19 -19 -19 -18
-21 -20 -20 -21 -20 -20 -21 -22 -21 -20 -19 -19 -18 -18 -18 -18 -17 -17 -16 -15 -14 -14 -14 -15 -15 -15 -15 -15 -15 -15 -16 -17 -17 -18 -19 -19 -19 -19 -19 -19 -19 -19 -19 -19
-21 -20 -20 -21 -20 -20 -20 -20 -19 -19 -18 -18 -18 -18 -17 -17 -16 -15 -14 -14 -14 -15 -15 -15 -15 -14 -14 -13 -13 -14 -15 -16 -17 -18 -18 -18 -18 -19 -18 -19 -19 -19 -19 -19

GFSCGP_500_temp_072.txt.gz
Temp
-13 -13 -14 -14 -14 -14 -15 -15 -14 -14 -14 -16 -16 -15 -13 -14 -15 -13 -13 -13 -13 -13 -14 -13 -12 -12 -12 -12 -11 -11 -12 -12 -12 -12 -11 -11 -11 -11 -11 -10 -10 -9 -9 -9
-13 -13 -14 -14 -15 -15 -15 -15 -15 -15 -15 -16 -15 -15 -14 -15 -14 -14 -13 -13 -13 -13 -14 -13 -13 -12 -12 -12 -11 -12 -12 -12 -13 -13 -12 -12 -11 -11 -10 -10 -10 -10 -9 -9
-13 -14 -14 -15 -16 -16 -16 -16 -16 -16 -16 -16 -16 -16 -15 -17 -16 -14 -13 -13 -13 -14 -14 -14 -13 -13 -12 -12 -12 -12 -12 -12 -12 -13 -13 -13 -12 -11 -11 -11 -11 -10 -9 -10
-13 -14 -15 -15 -16 -17 -17 -17 -18 -18 -17 -17 -17 -17 -16 -16 -17 -15 -15 -14 -14 -14 -14 -14 -13 -13 -13 -12 -12 -12 -12 -13 -13 -13 -13 -13 -13 -13 -12 -11 -11 -10 -9 -10
-14 -15 -16 -17 -18 -18 -17 -18 -18 -18 -18 -18 -16 -18 -16 -16 -16 -15 -15 -16 -16 -16 -15 -14 -13 -13 -13 -13 -12 -12 -13 -14 -13 -13 -13 -13 -13 -13 -13 -12 -11 -12 -11 -10
-14 -16 -17 -18 -18 -18 -18 -18 -19 -18 -18 -18 -16 -18 -16 -16 -16 -16 -16 -15 -16 -16 -15 -15 -14 -13 -13 -13 -13 -13 -14 -14 -13 -13 -14 -14 -13 -13 -13 -13 -12 -12 -11 -12
-15 -15 -17 -18 -18 -18 -19 -19 -19 -18 -19 -17 -18 -18 -16 -17 -17 -18 -17 -16 -16 -16 -16 -16 -15 -14 -14 -14 -13 -13 -14 -14 -14 -13 -13 -13 -13 -13 -13 -13 -13 -13 -12 -12
-16 -17 -18 -18 -19 -18 -18 -19 -19 -19 -19 -18 -18 -17 -17 -18 -17 -17 -16 -16 -16 -15 -15 -15 -16 -17 -16 -15 -14 -14 -14 -14 -14 -14 -13 -13 -13 -13 -13 -13 -13 -12 -13 -12
-17 -18 -18 -19 -19 -18 -19 -19 -20 -19 -19 -19 -18 -17 -18 -18 -17 -18 -17 -17 -17 -17 -17 -17 -18 -17 -17 -17 -16 -16 -14 -14 -14 -14 -14 -13 -13 -13 -13 -13 -13 -13 -12 -13
-18 -19 -19 -20 -20 -20 -20 -19 -19 -19 -19 -18 -17 -18 -18 -18 -17 -18 -18 -17 -17 -17 -18 -18 -18 -17 -17 -17 -16 -16 -15 -15 -15 -15 -14 -14 -13 -13 -13 -13 -13 -14 -14 -13
-18 -19 -19 -20 -21 -20 -20 -20 -20 -20 -20 -20 -18 -19 -19 -18 -18 -18 -18 -17 -18 -18 -17 -17 -17 -17 -17 -16 -15 -15 -15 -15 -15 -15 -15 -14 -14 -14 -14 -14 -14 -13 -13 -13
-18 -18 -19 -21 -22 -21 -20 -21 -20 -20 -20 -20 -19 -19 -19 -19 -19 -19 -19 -18 -18 -18 -18 -17 -17 -16 -16 -16 -15 -15 -15 -15 -15 -15 -15 -15 -15 -15 -15 -14 -14 -14 -13 -13
-18 -19 -19 -21 -21 -21 -21 -21 -20 -20 -20 -20 -20 -19 -20 -20 -20 -19 -19 -18 -18 -18 -18 -18 -18 -17 -17 -17 -16 -16 -16 -15 -15 -16 -16 -16 -16 -15 -15 -15 -14 -14 -14 -14
-19 -20 -20 -21 -21 -21 -21 -22 -21 -21 -20 -20 -20 -20 -19 -19 -18 -19 -19 -19 -18 -18 -18 -18 -18 -18 -18 -18 -18 -17 -17 -16 -16 -16 -16 -16 -16 -16 -15 -15 -15 -14 -14 -14
-20 -20 -20 -21 -21 -21 -21 -21 -21 -21 -20 -20 -20 -19 -19 -19 -19 -18 -18 -19 -19 -18 -19 -19 -18 -18 -19 -18 -18 -18 -17 -17 -17 -17 -16 -16 -16 -16 -16 -15 -15 -15 -15 -14
-20 -20 -20 -21 -21 -21 -21 -21 -21 -21 -20 -20 -20 -20 -19 -19 -19 -19 -19 -19 -19 -19 -19 -19 -19 -19 -18 -18 -18 -18 -18 -18 -17 -17 -17 -17 -17 -17 -17 -16 -15 -15 -14 -14
-20 -20 -20 -21 -21 -21 -21 -21 -21 -21 -20 -21 -20 -20 -20 -20 -19 -19 -19 -19 -18 -18 -18 -19 -19 -19 -18 -18 -18 -18 -18 -18 -17 -17 -17 -16 -16 -17 -17 -17 -16 -16 -16 -15
-20 -20 -21 -21 -21 -21 -20 -21 -21 -20 -20 -20 -20 -20 -20 -19 -19 -19 -20 -19 -19 -19 -19 -19 -19 -19 -19 -18 -18 -18 -18 -18 -18 -17 -17 -16 -16 -17 -17 -17 -16 -17 -16 -16
-20 -20 -20 -20 -21 -21 -20 -21 -21 -20 -20 -20 -20 -20 -20 -20 -19 -19 -20 -19 -19 -19 -18 -18 -18 -18 -18 -18 -19 -19 -18 -18 -18 -18 -17 -17 -17 -17 -18 -17 -17 -17 -16 -16
-20 -20 -20 -20 -20 -20 -21 -21 -21 -20 -20 -20 -20 -20 -19 -19 -18 -18 -19 -19 -19 -19 -19 -19 -18 -18 -17 -18 -18 -18 -18 -18 -18 -18 -18 -18 -18 -18 -18 -17 -17 -17 -16 -16
-20 -20 -20 -20 -20 -20 -20 -20 -20 -20 -20 -20 -21 -20 -20 -19 -18 -18 -18 -18 -18 -18 -18 -19 -19 -18 -18 -18 -18 -18 -18 -18 -18 -18 -18 -19 -19 -18 -18 -17 -17 -17 -17 -16
-20 -20 -20 -20 -20 -20 -20 -20 -20 -20 -20 -20 -20 -19 -18 -18 -18 -18 -18 -18 -17 -17 -17 -18 -18 -18 -18 -19 -18 -18 -18 -18 -18 -18 -18 -18 -18 -18 -17 -17 -17 -17 -17 -17
-20 -20 -20 -20 -20 -20 -20 -20 -20 -20 -20 -19 -19 -19 -19 -18 -18 -18 -17 -17 -17 -17 -17 -17 -17 -17 -17 -18 -18 -18 -18 -19 -19 -18 -18 -18 -18 -17 -17 -17 -17 -17 -17 -17
-21 -21 -20 -20 -21 -21 -20 -20 -20 -21 -19 -19 -18 -18 -18 -18 -18 -17 -15 -15 -15 -15 -16 -16 -16 -15 -16 -16 -17 -18 -18 -18 -18 -17 -17 -18 -17 -17 -18 -18 -18 -17 -17 -18
-21 -20 -20 -21 -20 -21 -21 -21 -20 -20 -19 -18 -18 -18 -18 -17 -15 -15 -15 -15 -15 -15 -15 -15 -15 -15 -15 -15 -15 -16 -17 -17 -17 -17 -17 -17 -18 -18 -18 -18 -18 -18 -18 -18
-21 -20 -20 -20 -20 -20 -20 -20 -19 -19 -18 -18 -18 -17 -17 -15 -15 -14 -14 -14 -14 -15 -15 -15 -14 -14 -14 -14 -15 -15 -15 -16 -17 -18 -18 -18 -19 -19 -19 -19 -19 -18 -18 -18

GFSCGP_500_temp_075.txt.gz
Temp
-13 -13 -14 -14 -13 -13 -13 -13 -13 -13 -14 -14 -14 -13 -12 -13 -14 -13 -13 -13 -13 -13 -13 -13 -13 -12 -12 -12 -12 -13 -13 -12 -12 -12 -12 -11 -11 -10 -10 -10 -10 -10 -10 -11
-13 -14 -13 -13 -14 -14 -14 -14 -14 -14 -15 -15 -15 -14 -14 -14 -14 -14 -14 -14 -14 -13 -13 -14 -14 -13 -13 -13 -13 -12 -12 -12 -12 -12 -12 -12 -11 -10 -11 -11 -11 -10 -10 -10
-12 -13 -13 -13 -14 -14 -14 -15 -15 -15 -16 -16 -16 -15 -14 -15 -15 -16 -15 -15 -15 -14 -14 -14 -14 -14 -14 -13 -13 -13 -13 -13 -12 -12 -11 -12 -12 -11 -11 -11 -11 -11 -10 -9
-13 -14 -14 -14 -14 -15 -15 -16 -16 -17 -17 -16 -17 -17 -15 -15 -16 -17 -16 -15 -16 -15 -14 -14 -14 -14 -14 -14 -13 -13 -13 -13 -13 -12 -12 -12 -12 -12 -12 -12 -12 -12 -12 -11
-14 -14 -14 -14 -15 -16 -16 -17 -18 -18 -18 -18 -17 -17 -15 -16 -16 -16 -17 -16 -16 -16 -15 -14 -14 -14 -14 -14 -13 -13 -13 -13 -13 -13 -13 -12 -12 -12 -12 -12 -12 -11 -11 -12
-13 -13 -13 -14 -16 -18 -18 -18 -18 -19 -19 -19 -17 -18 -17 -16 -17 -17 -17 -17 -17 -17 -16 -15 -15 -15 -14 -14 -14 -14 -14 -14 -14 -14 -14 -13 -13 -12 -12 -12 -12 -12 -12 -12
-14 -14 -14 -15 -16 -18 -19 -19 -18 -19 -19 -18 -18 -19 -17 -17 -17 -17 -18 -17 -17 -16 -16 -16 -15 -15 -15 -15 -14 -14 -15 -15 -15 -15 -14 -14 -13 -13 -13 -13 -13 -13 -13 -12
-14 -14 -15 -17 -17 -18 -19 -19 -19 -19 -18 -18 -18 -18 -17 -17 -17 -18 -17 -17 -17 -16 -16 -16 -16 -16 -16 -16 -16 -16 -16 -15 -15 -15 -15 -14 -13 -13 -13 -13 -14 -14 -14 -14
-15 -15 -15 -16 -17 -18 -19 -19 -20 -20 -19 -19 -18 -18 -18 -18 -18 -18 -18 -17 -16 -16 -16 -16 -17 -17 -17 -17 -17 -17 -17 -16 -15 -15 -14 -14 -14 -13 -13 -14 -14 -14 -14 -14
-16 -16 -16 -17 -18 -19 -19 -20 -20 -20 -19 -19 -19 -18 -18 -18 -18 -18 -19 -18 -17 -17 -18 -17 -17 -17 -17 -17 -17 -17 -18 -17 -15 -15 -14 -14 -14 -14 -14 -14 -14 -14 -14 -14
-16 -16 -17 -18 -18 -18 -20 -20 -20 -19 -20 -20 -19 -18 -19 -19 -19 -19 -19 -18 -18 -17 -18 -17 -17 -17 -17 -17 -17 -17 -17 -17 -17 -17 -16 -15 -14 -14 -14 -14 -14 -14 -14 -14
-16 -17 -18 -19 -19 -20 -20 -21 -21 -21 -21 -20 -20 -19 -19 -19 -19 -19 -19 -19 -19 -18 -17 -17 -17 -17 -17 -16 -16 -16 -17 -17 -17 -17 -17 -16 -15 -14 -14 -14 -14 -14 -14 -14
-17 -17 -19 -20 -20 -20 -21 -21 -21 -21 -21 -20 -21 -20 -19 -19 -19 -18 -18 -18 -19 -19 -18 -18 -17 -17 -17 -17 -17 -17 -17 -17 -17 -16 -16 -16 -16 -16 -16 -15 -15 -15 -14 -14
-17 -19 -19 -20 -20 -20 -21 -21 -21 -21 -21 -21 -21 -20 -19 -19 -20 -19 -19 -19 -19 -18 -18 -18 -18 -18 -18 -17 -17 -17 -17 -17 -16 -16 -16 -17 -16 -16 -16 -16 -15 -15 -15 -15
-18 -19 -20 -20 -20 -20 -21 -21 -21 -21 -21 -21 -21 -20 -20 -19 -20 -20 -19 -19 -19 -18 -18 -18 -19 -19 -18 -18 -18 -18 -17 -17 -17 -16 -16 -17 -17 -16 -16 -15 -15 -15 -15 -15
-19 -19 -20 -21 -20 -20 -21 -21 -21 -21 -21 -21 -21 -20 -20 -20 -19 -19 -19 -19 -19 -19 -19 -18 -18 -18 -18 -18 -18 -18 -18 -18 -17 -16 -16 -17 -18 -17 -16 -16 -16 -15 -15 -15
-19 -20 -20 -20 -21 -21 -21 -21 -21 -21 -21 -21 -21 -21 -20 -20 -19 -19 -20 -20 -19 -19 -18 -19 -19 -18 -18 -18 -18 -18 -18 -17 -17 -17 -17 -17 -17 -17 -17 -17 -16 -16 -16 -16
-20 -20 -20 -20 -21 -21 -21 -21 -21 -21 -21 -21 -21 -21 -20 -20 -20 -20 -20 -20 -19 -19 -19 -19 -18 -19 -19 -18 -18 -18 -18 -18 -18 -17 -17 -17 -17 -16 -17 -17 -17 -17 -16 -16
-20 -20 -20 -20 -20 -20 -21 -21 -20 -20 -20 -20 -20 -20 -20 -20 -19 -19 -20 -20 -19 -19 -19 -18 -18 -18 -18 -18 -19 -19 -19 -18 -18 -18 -18 -17 -17 -17 -18 -17 -17 -17 -17 -16
-20 -20 -20 -20 -20 -20 -20 -20 -20 -20 -20 -20 -20 -20 -20 -19 -19 -18 -19 -19 -19 -19 -19 -18 -18 -18 -18 -18 -18 -18 -18 -18 -18 -18 -18 -18 -18 -17 -17 -17 -17 -17 -17 -16
-20 -20 -20 -20 -20 -20 -20 -20 -20 -20 -20 -20 -20 -20 -20 -19 -19 -18 -18 -18 -18 -18 -18 -18 -18 -18 -18 -18 -18 -18 -18 -17 -18 -18 -18 -18 -18 -18 -17 -17 -17 -17 -17 -17
-20 -20 -21 -20 -20 -20 -20 -20 -20 -20 -20 -20 -19 -19 -19 -18 -18 -18 -18 -18 -17 -17 -17 -17 -17 -17 -17 -18 -18 -18 -18 -18 -18 -18 -18 -18 -18 -18 -18 -18 -18 -17 -17 -16
-21 -21 -21 -20 -20 -20 -20 -20 -20 -20 -19 -18 -18 -18 -18 -18 -17 -17 -16 -15 -16 -16 -16 -16 -16 -16 -17 -16 -16 -16 -17 -17 -18 -19 -18 -18 -19 -18 -19 -18 -18 -18 -17 -17
-21 -21 -21 -20 -20 -20 -20 -20 -20 -19 -18 -18 -19 -18 -18 -17 -16 -15 -15 -15 -15 -15 -15 -15 -16 -17 -16 -15 -16 -15 -15 -16 -17 -18 -19 -19 -19 -19 -19 -18 -18 -17 -17 -17
-21 -21 -21 -20 -20 -20 -20 -20 -19 -20 -19 -19 -18 -18 -17 -16 -15 -15 -15 -14 -16 -16 -16 -16 -15 -16 -15 -15 -15 -15 -16 -16 -16 -17 -17 -19 -19 -19 -19 -18 -18 -18 -18 -18
-20 -21 -21 -20 -20 -20 -20 -20 -20 -19 -18 -18 -17 -16 -16 -15 -14 -14 -15 -14 -14 -14 -15 -16 -16 -16 -15 -15 -15 -15 -15 -15 -15 -17 -18 -18 -18 -18 -18 -18 -18 -18 -18 -17